Flag for Congo Dem.Rep. Weather past 2 weeks in Kinshasa, Congo Dem.Rep.

Now
75 °F

Clear.


Feels Like: 75 °F
Forecast: 72 / 92 °F
Wind: No wind

Location: Brazzaville / Maya-Maya

Current Time: Mar 30, 2015 at 1:17:03 AM

Latest Report: Mar 30, 2015 at 12:00 AM


Visibility: 5 mi

Pressure: 29.92 "Hg

Humidity: 89%

Dew point: 72 °F

Location of KinshasaLocation

Historic Weather in Kinshasa — Graph

°F

Kinshasa temperature yesterday

Maximum temperature yesterday: 84 °F (at 2:00 PM)
Minimum temperature yesterday: 73 °F (at 3:00 AM)
Average temperature yesterday: 77 °F

Past Weeks' High & Low Weather Summary

 TemperatureHumidityPressure
High95 °F (Mar 25, 3:00 PM)100% (Mar 16, 1:00 AM)30.04 "Hg (Mar 16, 1:00 AM)
Low72 °F (Mar 16, 1:00 AM)41% (Mar 25, 3:00 PM)29.71 "Hg (Mar 15, 3:00 PM)
Average79 °F81%29.87 "Hg
* Reported Midnight between Mar 14 and Mar 15 — Midnight between Mar 29 and Mar 30, Kinshasa, Weather by CustomWeather, © 2015

Note: Actual official high and low records may vary slightly from our data, if they occured in-between our weather recording intervals... More about our weather records

Advertising

Kinshasa weather history for previous 24 hours

 ConditionsComfort  
Time TempWeatherWind HumidityBarometerVisibility
12:00 AM
Mon, Mar 30
75 °FClear.No wind89%29.92 "Hg5 mi
11:00 PM
Sun, Mar 29
75 °FClear.1 mph89%29.95 "Hg5 mi
10:00 PM75 °FClear.3 mph89%29.95 "Hg5 mi
9:00 PM77 °FPassing clouds.5 mph83%29.95 "Hg5 mi
8:00 PM79 °FPassing clouds.3 mph79%29.92 "Hg5 mi
7:00 PM79 °FPassing clouds.3 mph79%29.89 "HgN/A
6:00 PM81 °FScattered clouds.5 mph74%29.86 "HgN/A
5:00 PM82 °FScattered clouds.10 mph70%29.86 "HgN/A
4:00 PM84 °FBroken clouds.9 mph66%29.86 "HgN/A
3:00 PM84 °FBroken clouds.10 mph66%29.89 "HgN/A
2:00 PM84 °FLight rain. Broken clouds.8 mph66%29.89 "HgN/A
10:00 AM79 °FPartly sunny.8 mph79%30.01 "HgN/A
9:00 AM79 °FLight rain. Partly sunny.6 mph79%30.01 "HgN/A
8:00 AM75 °FLight rain. Passing clouds.3 mph89%30.01 "HgN/A
7:00 AM73 °FPassing clouds.1 mph94%29.98 "HgN/A
6:00 AM73 °FPassing clouds.No wind94%29.95 "HgN/A
5:00 AM73 °FPassing clouds.2 mph94%29.95 "HgN/A
4:00 AM73 °FPassing clouds.1 mph94%29.95 "HgN/A
3:00 AM73 °FPassing clouds.3 mph94%29.95 "HgN/A
2:00 AM75 °FPassing clouds.5 mph89%29.95 "HgN/A
1:00 AM75 °FPassing clouds.7 mph89%29.98 "Hg6 mi
Weather by CustomWeather, © 2015

See weather overviewHow to use our weather pages